Theta_e
309 308 308 307 306 305 305 304 304 304 304 305 306 306 305 307 309 310 311 312 312 313 314 314 314 313 313 311 313 315 311 310 312 314 314 317 316 318 319 322 325 326 335 348 354
310 309 309 308 308 307 306 305 305 304 304 304 304 305 305 306 307 310 313 316 316 314 315 314 313 314 312 311 313 311 311 312 313 314 314 316 316 316 318 319 323 326 337 350 353
303 303 303 304 305 305 305 305 305 305 304 303 303 303 304 305 306 310 318 317 318 316 313 315 313 313 310 310 311 311 313 314 314 316 316 316 316 316 317 318 320 319 345 352 353
302 302 302 302 302 302 302 302 303 303 303 304 304 303 303 305 308 319 318 317 317 319 313 316 316 316 307 307 311 309 313 314 315 316 317 316 317 316 318 319 320 320 320 346 349
302 302 302 302 303 302 302 302 302 301 301 301 303 304 307 310 307 308 314 318 318 317 315 316 317 314 310 308 309 308 310 313 315 316 316 316 315 316 317 319 320 319 319 320 322
302 302 302 302 302 302 302 302 302 302 302 301 301 305 309 308 309 313 318 314 315 318 316 316 316 315 311 311 309 311 311 311 313 314 315 315 315 316 317 319 319 319 319 319 318
302 302 302 302 302 302 303 303 303 303 302 302 302 310 308 307 308 309 318 318 318 319 317 316 316 314 313 311 313 311 311 311 312 313 312 316 314 316 317 318 319 318 318 318 318
303 303 303 303 303 303 303 303 304 304 303 303 304 310 309 305 306 306 307 312 317 320 320 320 316 315 313 313 313 310 309 310 310 311 313 314 315 316 318 318 317 318 318 318 318
304 304 304 304 304 304 304 304 305 304 304 305 309 309 310 309 310 311 313 308 316 319 321 319 316 315 312 310 311 311 311 309 310 311 313 312 315 315 318 318 316 317 318 318 318
303 303 303 302 303 303 303 304 305 307 308 310 310 312 312 311 312 316 319 313 319 321 319 318 315 310 310 310 314 313 311 312 313 314 311 312 313 313 317 317 316 317 318 318 318
299 299 299 300 300 301 301 304 307 311 311 311 312 313 312 313 313 313 319 316 318 319 314 312 312 314 312 312 313 314 313 312 313 314 314 313 313 312 314 314 314 315 317 317 318
297 297 297 297 298 299 301 309 307 310 312 311 312 313 312 311 312 312 313 318 319 320 316 314 315 316 316 315 315 315 315 314 313 315 315 315 314 314 314 313 315 316 318 319 320
296 296 296 296 297 300 309 305 304 308 309 311 310 312 312 313 313 313 314 316 319 320 318 317 318 318 317 317 316 315 315 314 313 315 315 316 316 316 316 316 316 317 319 320 320
297 296 296 296 299 300 298 299 301 308 309 310 309 310 312 312 314 314 314 316 319 321 321 318 318 319 318 318 316 316 315 316 315 315 314 316 317 317 318 319 319 320 321 321 320
297 297 297 296 297 300 298 301 307 310 309 308 311 313 314 313 315 316 315 315 320 321 322 320 319 319 320 319 317 316 315 316 315 314 313 315 316 316 318 319 318 318 320 322 321
296 297 297 298 298 300 302 307 308 311 311 309 310 311 311 314 316 315 317 316 318 320 322 322 320 319 319 320 318 316 315 315 314 314 314 316 317 316 317 320 321 318 319 320 320
296 297 298 304 306 305 306 309 309 311 310 311 311 310 311 311 313 316 317 319 321 322 322 323 323 321 320 321 318 316 313 313 315 314 316 315 316 316 318 320 320 317 318 321 321
297 298 304 308 309 311 307 311 311 309 310 310 311 311 311 311 317 319 320 319 318 319 322 325 326 322 321 317 317 315 313 312 316 316 315 318 317 317 317 318 322 320 321 321 322
298 300 303 305 307 310 308 312 313 311 310 311 312 312 312 312 315 317 317 318 318 320 323 323 324 320 320 319 318 316 313 313 317 321 318 317 318 323 323 323 324 324 326 328 327
299 302 305 307 308 309 309 313 310 310 311 311 313 313 314 315 316 317 318 319 318 319 319 321 321 320 320 319 319 317 315 316 319 323 322 321 326 326 326 325 327 326 326 330 335
301 302 305 304 307 307 309 309 308 309 310 313 314 314 314 314 315 316 318 320 319 320 319 321 322 323 321 321 319 317 315 317 317 320 319 323 326 325 325 324 328 326 327 326 326
301 300 305 304 303 304 307 307 308 310 310 312 311 313 312 315 317 318 320 320 320 321 321 319 322 322 321 320 320 319 320 316 318 319 319 320 321 325 324 326 325 326 326 326 325
302 302 303 304 301 304 306 308 307 309 309 312 312 314 312 315 316 317 319 320 319 318 323 322 324 322 323 320 319 321 321 317 317 316 322 320 323 323 325 324 325 325 326 325 326
303 304 302 303 302 303 304 307 307 307 309 308 311 313 313 313 315 318 318 319 318 319 318 320 322 319 322 321 320 322 322 320 316 318 322 324 326 325 324 326 325 323 323 323 323
303 302 303 301 302 301 303 307 306 307 308 309 310 312 314 314 313 318 317 316 319 320 318 319 324 319 322 322 324 324 321 321 318 318 320 324 325 325 323 324 324 323 323 322 322
301 301 302 302 302 302 304 306 306 307 306 309 309 309 311 313 311 313 315 313 316 318 317 318 324 320 325 325 324 326 324 324 321 324 325 325 324 323 323 323 324 324 323 322 318
300 301 302 303 301 303 304 304 305 306 307 306 307 309 311 312 310 310 311 312 315 318 320 320 323 321 325 323 324 325 324 326 325 324 325 326 323 322 324 324 323 322 320 316 315
Wind_Speed
22 22 22 22 22 22 22 22 22 21 21 21 22 24 25 27 28 30 37 32 25 18 20 12 16 18 15 12 17 17 3 6 8 7 7 15 4 18 22 15 21 27 17 25 37
25 26 25 25 24 24 24 25 25 24 25 24 24 25 25 27 30 38 31 21 25 26 22 26 20 16 9 13 10 8 8 10 6 9 6 18 7 14 18 20 28 9 4 27 38
24 26 26 26 26 26 25 25 25 25 26 25 26 26 26 26 29 13 3 4 8 22 30 24 26 16 17 14 14 6 15 11 6 24 24 23 22 18 7 7 3 11 7 32 32
24 25 25 25 26 26 26 25 26 27 26 26 26 25 24 18 7 3 4 2 2 16 27 24 20 12 7 10 15 7 17 16 9 20 19 14 12 11 16 16 16 9 6 15 25
24 24 25 26 27 28 29 28 27 27 28 27 26 23 18 9 34 26 20 16 10 13 33 30 22 18 8 8 17 9 3 12 22 30 34 30 25 14 19 23 21 14 7 3 4
28 29 30 30 30 31 31 31 30 29 29 29 26 21 16 16 27 4 10 22 28 17 28 34 19 29 6 10 13 7 26 25 25 28 29 19 24 11 21 18 17 20 17 12 3
29 30 30 31 32 32 32 33 32 31 31 30 29 19 24 46 28 15 14 14 17 23 25 32 38 22 17 4 29 25 16 12 16 20 10 21 16 23 23 19 18 18 22 18 17
30 31 31 32 32 34 35 34 34 32 33 35 24 17 22 36 37 41 32 36 25 29 25 21 34 31 12 9 8 10 8 17 9 8 11 12 26 16 21 19 22 19 23 26 24
32 33 34 35 34 34 36 37 35 37 35 25 11 14 19 19 22 18 19 39 28 29 29 21 23 20 16 5 6 4 10 6 7 8 7 11 22 6 16 19 24 25 26 28 30
34 34 35 36 36 37 38 38 39 24 13 5 9 8 21 24 15 15 17 22 19 27 23 25 17 7 12 6 13 8 4 6 8 4 9 12 15 6 24 26 26 32 31 32 35
36 37 37 36 36 35 42 39 15 6 2 12 15 21 30 27 27 29 14 21 22 22 12 19 12 20 21 16 8 9 8 8 5 9 8 13 14 11 18 16 17 25 29 34 32
37 38 39 39 38 38 29 13 22 21 18 25 41 48 58 45 39 40 25 16 17 17 18 7 20 11 11 12 15 10 12 11 7 6 7 12 14 16 14 10 24 29 32 27 26
39 40 40 41 40 28 13 28 21 23 10 27 35 37 34 32 44 47 24 25 17 16 21 21 7 16 16 13 14 13 14 7 10 4 10 5 11 15 11 22 27 31 34 30 28
39 39 40 41 31 15 37 20 26 16 4 11 7 8 11 18 8 35 46 21 19 24 17 17 21 23 14 17 13 16 9 13 19 7 6 6 10 7 11 12 7 17 24 32 29
40 41 41 35 42 29 34 23 13 3 4 7 4 26 9 14 13 10 23 28 19 12 16 20 20 25 21 24 18 12 12 16 17 12 5 18 1 7 4 4 7 9 16 22 26
43 44 44 42 39 35 11 10 6 2 9 6 8 18 22 11 6 20 7 19 10 14 18 21 17 21 26 15 20 13 10 12 13 9 7 14 6 6 5 6 6 7 25 28 24
45 44 41 23 23 19 9 7 3 5 8 5 14 20 20 12 13 4 8 3 3 10 19 17 19 16 12 21 17 21 10 5 5 5 6 10 4 7 4 4 7 9 19 26 22
47 43 18 25 33 26 8 2 7 7 11 20 18 24 10 13 4 4 3 6 9 17 9 16 12 26 20 18 15 16 16 6 7 5 5 4 4 5 5 5 12 13 32 21 18
47 38 14 31 35 20 6 4 3 1 8 17 19 10 3 3 6 2 3 3 4 9 10 12 12 5 22 18 16 14 10 11 4 3 4 2 1 6 12 13 12 16 20 16 24
42 25 25 27 16 6 4 4 6 13 15 11 10 4 7 8 9 5 10 5 4 12 6 4 6 17 15 10 18 17 6 7 3 6 4 0 3 2 8 9 12 17 23 28 27
29 13 26 31 5 12 3 4 7 14 19 6 5 7 10 10 8 6 4 6 10 12 13 2 2 2 3 4 15 7 15 4 6 6 5 3 3 6 5 6 14 13 30 32 35
14 4 23 26 8 3 4 14 15 13 25 3 8 11 4 10 5 6 8 6 7 4 15 9 1 4 5 6 1 2 3 5 7 4 2 5 5 2 4 11 22 20 28 38 39
18 7 19 18 5 7 9 11 11 19 17 5 9 8 11 4 4 3 2 4 14 2 11 9 6 4 3 4 3 4 4 4 6 4 3 6 4 1 10 13 24 29 31 36 37
9 4 9 9 20 7 14 6 15 18 14 20 12 7 12 7 4 3 4 5 10 5 11 2 3 4 6 2 4 5 2 2 5 4 6 4 5 2 6 14 14 27 33 34 37
7 3 4 6 11 13 14 6 19 14 9 11 7 15 12 4 6 2 1 3 6 11 4 1 4 5 3 2 7 4 10 7 5 7 7 8 11 7 8 12 19 31 33 37 35
8 7 6 14 16 9 10 6 15 20 13 9 9 19 13 4 1 6 9 3 3 7 3 3 4 12 4 11 6 2 1 3 3 7 10 14 6 3 13 18 15 21 26 27 28
20 17 11 7 5 8 5 14 21 19 8 19 17 13 11 6 15 20 19 18 6 2 5 4 2 4 5 4 1 1 1 2 6 13 19 13 6 7 14 12 19 27 25 30 30
Wind_Direction
338 336 334 332 328 324 321 319 315 311 307 304 304 305 305 303 298 291 277 275 268 250 234 216 203 206 221 234 212 209 184 215 215 218 245 272 323 296 319 294 303 305 216 186 160
335 333 332 330 328 325 324 321 319 316 313 310 308 305 304 306 303 291 301 277 256 241 221 209 209 199 205 222 211 195 210 217 198 219 267 274 266 310 316 315 285 253 182 164 162
334 332 330 328 326 324 323 321 318 316 314 312 310 308 306 312 316 295 163 347 259 214 217 219 219 209 211 222 203 213 237 221 229 235 258 268 276 290 262 252 249 359 183 166 173
337 334 332 328 325 323 321 318 317 314 310 308 307 307 307 309 289 187 173 237 37 202 201 205 204 189 190 218 217 235 238 230 250 254 253 251 257 266 274 262 279 315 20 194 190
331 328 327 325 323 323 322 318 316 313 311 307 305 306 305 263 259 265 257 255 264 211 195 198 208 200 193 200 233 245 298 246 244 251 255 264 262 261 258 274 279 283 286 220 190
332 330 328 326 324 323 320 316 315 312 309 306 299 299 276 258 293 270 211 230 238 224 207 206 210 211 213 224 205 235 228 250 256 248 247 248 264 246 257 259 273 279 281 275 258
333 331 328 326 324 322 319 315 313 310 306 303 295 283 257 249 266 262 240 228 229 232 214 215 216 195 220 285 236 231 256 259 244 244 244 256 264 246 259 260 245 268 281 279 273
333 331 329 327 326 324 320 315 310 306 303 292 286 268 255 280 285 266 246 236 231 226 238 242 220 214 241 265 316 204 223 248 264 225 249 201 254 256 253 262 256 249 263 273 268
335 333 330 328 327 323 318 316 312 305 291 281 254 245 271 287 269 294 264 233 225 223 230 228 207 212 233 197 287 250 242 229 266 212 230 193 253 221 236 253 264 260 258 258 263
332 330 328 327 325 324 322 318 318 305 277 225 242 249 262 258 267 324 313 219 190 204 215 210 204 178 219 171 214 229 206 224 212 248 190 238 250 241 236 234 245 255 258 258 254
331 329 326 325 322 322 322 319 342 307 225 250 247 222 275 280 283 285 295 195 199 203 195 195 197 207 211 218 228 224 220 236 220 229 238 245 255 236 251 228 236 242 250 247 250
329 327 326 324 320 323 315 306 319 313 300 274 261 253 257 257 269 260 255 204 193 211 202 220 218 203 206 201 204 212 234 244 288 266 221 249 250 240 233 230 231 234 238 234 237
330 330 328 325 323 322 296 304 330 333 276 291 263 249 253 227 242 252 239 227 204 200 208 215 216 201 202 212 210 220 228 228 239 300 271 270 265 253 248 229 232 234 235 237 229
332 331 329 326 323 301 307 324 321 328 292 280 252 272 221 211 265 256 237 221 219 209 211 226 232 198 202 217 208 229 213 233 252 250 251 165 269 226 211 204 202 221 235 243 233
332 329 331 325 309 299 324 322 334 121 286 267 256 41 111 158 321 357 242 207 223 198 199 208 200 218 211 213 207 232 219 227 242 249 251 273 222 266 144 237 256 252 226 229 213
333 333 332 327 312 326 333 349 22 130 248 278 315 6 5 342 359 339 314 204 220 214 212 219 201 201 226 219 218 218 230 233 247 243 246 250 165 282 190 184 267 274 215 183 185
334 337 337 351 333 350 344 345 85 219 314 268 330 344 340 333 305 54 309 13 250 227 215 214 219 225 203 225 224 213 206 237 218 206 218 230 144 226 234 258 252 188 176 182 185
337 340 14 14 1 341 334 215 231 254 256 313 325 326 309 306 25 15 184 217 217 236 257 214 216 212 218 207 205 214 198 163 187 161 192 203 193 250 238 324 25 208 171 182 189
341 351 17 5 344 332 180 259 232 259 272 322 321 311 326 9 324 148 263 272 272 212 220 191 221 176 217 226 212 219 197 200 153 158 91 243 116 14 28 20 40 63 67 84 140
345 352 15 2 354 347 204 242 326 341 342 323 290 266 285 331 328 187 186 190 248 210 218 283 208 229 241 240 226 209 199 167 289 132 162 297 73 137 20 31 44 58 53 65 88
354 339 4 1 317 55 31 263 273 301 314 266 283 258 258 303 259 253 240 176 196 198 205 267 30 7 47 117 226 221 213 189 127 126 145 131 235 183 141 96 77 64 70 67 75
353 328 358 355 31 359 350 310 316 317 320 337 293 253 289 280 257 232 207 244 181 198 186 205 305 180 205 278 328 186 124 150 167 168 159 152 240 177 149 113 100 77 81 88 85
329 292 350 355 23 347 329 314 335 334 328 354 298 322 2 285 274 250 264 166 145 124 153 164 207 121 49 321 217 205 129 123 117 117 184 139 243 2 120 115 111 107 105 101 104
342 331 332 339 351 322 328 308 343 346 328 338 299 346 337 320 275 270 285 156 172 124 145 29 186 156 180 128 123 132 132 253 153 104 156 168 151 188 92 127 125 116 114 112 114
5 341 334 311 331 323 324 300 337 345 335 344 315 335 331 305 309 281 291 0 162 150 105 293 196 166 114 133 135 147 210 221 179 171 153 181 148 169 158 142 148 139 130 136 136
7 334 298 299 292 317 324 330 328 335 327 322 313 317 321 265 356 307 337 236 183 162 117 220 246 159 105 81 40 166 229 325 184 113 100 128 88 160 118 117 124 136 135 130 127
339 326 301 301 295 311 320 319 318 332 305 313 319 308 318 4 312 294 281 286 292 19 158 218 241 94 124 20 359 193 249 284 134 148 139 142 146 117 125 140 151 142 124 118 117